Miscellaneous Local Product
Issued by NWS Hastings, NE

Home | Current Version | Previous Version | Graphics & Text | Print | Product List | Glossary On
Versions: 1 2 3 4 5 6 7 8 9 10 11 12 13 14 15 16 17 18 19 20 21 22 23 24 25 26 27 28 29 30 31 32 33 34 35 36 37 38 39 40 41 42 43 44 45 46 47 48 49 50
000
AXUS43 KGID 291802
MISGRI

GID CWA HOURLY WEATHER ROUNDUP
NATIONAL WEATHER SERVICE HASTINGS NE
1200 PM CST THU JAN 29 2015

NOTE: "FAIR" INDICATES FEW OR NO CLOUDS BELOW 12,000 FEET WITH NO
SIGNIFICANT WEATHER AND/OR OBSTRUCTIONS TO VISIBILITY.

...SOUTH CENTRAL NEBRASKA...

CITY           SKY/WX    TMP DP  RH WIND       PRES   REMARKS
GRAND ISLAND   CLOUDY    40  25  55 N22G36    30.47R WCI  30
HASTINGS       PTSUNNY   40  24  53 N23G33    30.46S WCI  30
KEARNEY        MOSUNNY   41  23  48 N24       30.47S
ORD            CLOUDY    40  24  53 N21G29    30.46R WCI  30
YORK           CLOUDY    39  27  60 N18       30.43S WCI  30
AURORA         CLOUDY    39  26  58 N21G31    30.45S WCI  29
LEXINGTON      MOSUNNY   41  26  53 N18       30.48S
HOLDREGE       MOSUNNY   40  24  54 N13G24    30.47S WCI  32
HEBRON         CLOUDY    41  24  51 N21G32    30.45R

...NEBRASKA PANHANDLE...

CITY           SKY/WX    TMP DP  RH WIND       PRES   REMARKS
CHADRON        SUNNY     39  23  52 NW10      30.51S WCI  32
ALLIANCE       SUNNY     38  22  52 N8        30.49R WCI  32
SCOTTSBLUFF    SUNNY     42  23  46 NW6       30.50F
SIDNEY         SUNNY     41  16  36 N17       30.50R

...WESTERN AND NORTH CENTRAL NEBRASKA...

CITY           SKY/WX    TMP DP  RH WIND       PRES   REMARKS
VALENTINE      SUNNY     39  23  52 NW15      30.48S WCI  31
AINSWORTH      SUNNY     37  23  56 NW18      30.46S WCI  27
ONEILL         PTSUNNY   40  27  59 NW23      30.45S WCI  30
BROKEN BOW     MOSUNNY   40  24  53 NW21      30.47R WCI  30
IMPERIAL       MOSUNNY   39  25  57 NW15      30.52S WCI  31
NORTH PLATTE   SUNNY     40  23  50 NW14      30.49S WCI  32
MCCOOK         SUNNY     43  23  45 N16G28    30.51S

...EASTERN NEBRASKA...

CITY           SKY/WX    TMP DP  RH WIND       PRES   REMARKS
NORFOLK        CLOUDY    37  26  64 NW25G32   30.42R WCI  25
SO SIOUX CITY  CLOUDY    36  26  67 N21G28    30.42R WCI  25
TEKAMAH        CLOUDY    38  27  64 NW22G31   30.42R WCI  27
COLUMBUS       CLOUDY    37  23  56 N18G26    30.45S WCI  27
ALBION         CLOUDY    38  25  58 N20G30    30.44R WCI  28
OMAHA EPPLEY   CLOUDY    38  25  59 N26G32    30.39R WCI  26
OFFUTT AFB     CLOUDY    38  25  58 NW20      30.40R WCI  29
MILLARD        CLOUDY    39  27  61 NW18G28   30.41R WCI  29
LINCOLN        CLOUDY    41  27  57 N21G30    30.43R
NEBRASKA CITY  CLOUDY    39  23  52 N24G33    30.39R WCI  28
BEATRICE       CLOUDY    39  28  63 N22G32    30.43R WCI  29
FALLS CITY     CLOUDY    40  26  57 NW22G36   30.38R WCI  30

...NORTHERN KANSAS...

CITY           SKY/WX    TMP DP  RH WIND       PRES   REMARKS
GOODLAND       SUNNY     40  27  59 N16       30.52R WCI  31
HILL CITY      FAIR      43  25  49 N14G24    30.52R
NORTON         PTCLDY    39  21  48 N14G22    30.50R WCI  31
PHILLIPSBURG   SUNNY     46  25  42 N16G24    30.50S
SMITH CENTER   MOSUNNY   43  25  49 NW20G28   30.49R
BELOIT         PTSUNNY   45  25  45 N18G24    30.48R
HAYS           SUNNY     43  21  42 N22G28    30.51R
RUSSELL        SUNNY     45  25  45 N20G28    30.48R
CONCORDIA      CLOUDY    43  27  53 N16G28    30.46R
SALINA         MOSUNNY   48  26  42 N23G32    30.47R
TOPEKA         CLOUDY    42  28  57 NW21G31   30.41R



USA.gov is the U.S. government's official web portal to all federal, state and local government web resources and services.